CW5752 Weather Reports


Display with metric or nautical units.
time (UTC)temp
F
wind
direction
speed
MPH
gust
MPH
rain 1hr
in
rain 24hr
in
rain mn
in
humidity
%
barometer
mb
20260906214042 91 18 0.0 6.0 0.00 0.00 0.00 54 1012.7
20260906213021 90 87 0.0 4.0 0.00 0.00 0.00 51 1012.8
20260906212016 90 55 1.0 7.0 0.00 0.00 0.00 50 1012.9
20260906211021 90 70 1.0 6.0 0.00 0.00 0.00 52 1012.9
20260906210022 89 131 0.0 5.0 0.00 0.00 0.00 53 1012.9
20260906205021 90 249 1.0 7.0 0.00 0.00 0.00 55 1012.9
20260906204021 89 2 0.0 7.0 0.00 0.00 0.00 58 1012.9
20260906203021 89 12 0.0 10.0 0.00 0.00 0.00 57 1012.9
20260906202021 90 112 0.0 7.0 0.00 0.00 0.00 57 1013.1
20260906201016 90 341 1.0 7.0 0.00 0.00 0.00 58 1013.4
20260906200022 89 341 1.0 11.0 0.00 0.00 0.00 58 1013.4
20260906195041 89 143 1.0 7.0 0.00 0.00 0.00 60 1013.5
20260906194041 88 77 1.0 8.0 0.00 0.00 0.00 59 1013.6
20260906193021 88 130 1.0 6.0 0.00 0.00 0.00 60 1013.7
20260906192021 87 141 1.0 6.0 0.00 0.00 0.00 62 1014.0
20260906191036 88 329 1.0 8.0 0.00 0.00 0.00 63 1014.1
20260906190017 86 124 1.0 6.0 0.00 0.00 0.00 64 1014.1
20260906185022 88 335 1.0 10.0 0.00 0.00 0.00 65 1014.2
20260906184022 87 330 0.0 7.0 0.00 0.00 0.00 64 1014.2
20260906183042 87 320 1.0 6.0 0.00 0.00 0.00 65 1014.4
20260906182021 85 112 1.0 7.0 0.00 0.00 0.00 68 1014.6
20260906181021 86 355 1.0 6.0 0.00 0.00 0.00 68 1014.7
20260906180016 86 337 1.0 6.0 0.00 0.00 0.00 69 1014.8
20260906175022 85 13 1.0 5.0 0.00 0.00 0.00 70 1015.0
20260906174021 85 320 0.0 8.0 0.00 0.00 0.00 72 1015.1
20260906173021 85 91 1.0 8.0 0.00 0.00 0.00 69 1015.2
20260906172022 85 327 1.0 5.0 0.00 0.00 0.00 71 1015.2
20260906171021 85 326 1.0 7.0 0.00 0.00 0.00 72 1015.2
20260906170037 83 326 2.0 7.0 0.00 0.00 0.00 71 1015.4
20260906165036 83 312 0.0 5.0 0.00 0.00 0.00 72 1015.3
20260906164042 82 1 0.0 6.0 0.00 0.00 0.00 75 1015.5
20260906163021 82 349 1.0 7.0 0.00 0.00 0.00 76 1015.4
20260906162021 82 100 1.0 6.0 0.00 0.00 0.00 74 1015.4
20260906161043 80 242 0.0 5.0 0.00 0.00 0.00 78 1015.4
20260906160022 78 104 1.0 5.0 0.00 0.00 0.00 80 1015.3
20260906155037 78 315 0.0 5.0 0.00 0.00 0.00 81 1015.4
20260906154021 78 349 0.0 6.0 0.00 0.00 0.00 83 1015.3
20260906153021 77 335 0.0 5.0 0.00 0.00 0.00 84 1015.3
20260906152021 78 335 1.0 6.0 0.00 0.00 0.00 83 1015.2
20260906151021 78 311 0.0 4.0 0.00 0.00 0.00 84 1015.1
20260906150041 77 326 1.0 5.0 0.00 0.00 0.00 84 1015.2
20260906145022 76 322 1.0 5.0 0.00 0.00 0.00 86 1015.1
20260906144036 76 318 0.0 3.0 0.00 0.00 0.00 87 1015.1
20260906143021 76 324 0.0 6.0 0.00 0.00 0.00 88 1015.1
20260906142021 76 326 1.0 6.0 0.00 0.00 0.00 87 1015.2
20260906141021 75 345 0.0 4.0 0.00 0.00 0.00 87 1015.1
20260906140021 75 89 0.0 2.0 0.00 0.00 0.00 88 1014.9
20260906135041 75 154 0.0 3.0 0.00 0.00 0.00 88 1014.9
20260906134036 75 323 0.0 3.0 0.00 0.00 0.00 88 1014.8
20260906133016 75 331 0.0 4.0 0.00 0.00 0.00 88 1014.9
20260906132021 76 339 0.0 6.0 0.00 0.00 0.00 87 1014.9
20260906131021 76 71 0.0 3.0 0.00 0.00 0.00 87 1014.8
20260906130041 76 121 0.0 3.0 0.00 0.00 0.00 87 1014.6
20260906125019 76 207 0.0 3.0 0.00 0.00 0.00 88 1014.6
20260906124021 75 300 0.0 2.0 0.00 0.00 0.00 90 1014.5
20260906123016 74 0.0 0.0 0.00 0.00 0.00 92 1014.3
20260906122021 74 0.0 0.0 0.00 0.00 0.00 92 1014.2
20260906121021 73 0.0 0.0 0.00 0.00 0.00 92 1014.1
20260906120022 73 0.0 0.0 0.00 0.00 0.00 92 1014.1
20260906115021 74 0.0 0.0 0.00 0.00 0.00 91 1014.1
20260906114021 74 0.0 0.0 0.00 0.00 0.00 91 1014.0
20260906113057 74 0.0 0.0 0.00 0.00 0.00 91 1013.9
20260906112016 74 0.0 0.0 0.00 0.00 0.00 90 1013.9
20260906111041 75 0.0 0.0 0.00 0.00 0.00 90 1013.7
20260906110021 75 0.0 0.0 0.00 0.00 0.00 90 1013.6
20260906105041 75 0.0 0.0 0.00 0.00 0.00 90 1013.4
20260906104021 75 0.0 0.0 0.00 0.00 0.00 89 1013.3
20260906103021 75 0.0 0.0 0.00 0.00 0.00 89 1013.2
20260906102016 75 0.0 0.0 0.00 0.00 0.00 89 1013.1
20260906101022 75 0.0 0.0 0.00 0.00 0.00 89 1013.0
20260906100023 76 0.0 0.0 0.00 0.00 0.00 87 1013.0
20260906095021 77 0.0 0.0 0.00 0.00 0.00 86 1012.8
20260906094021 77 0.0 2.0 0.00 0.00 0.00 85 1012.7
20260906093021 78 0.0 1.0 0.00 0.00 0.00 85 1012.7
20260906092041 77 0.0 0.0 0.00 0.00 0.00 86 1012.6
20260906091036 77 0.0 0.0 0.00 0.00 0.00 87 1012.5
20260906090021 78 0.0 0.0 0.00 0.00 0.00 87 1012.4
20260906085021 77 0.0 0.0 0.00 0.00 0.00 88 1012.3
20260906084021 78 0.0 0.0 0.00 0.00 0.00 87 1012.1
20260906083021 78 0.0 0.0 0.00 0.00 0.00 86 1012.1
20260906082021 79 0.0 0.0 0.00 0.00 0.00 86 1012.2
20260906081016 79 0.0 1.0 0.00 0.00 0.00 85 1012.1
20260906080021 80 0.0 0.0 0.00 0.00 0.00 84 1012.1
20260906075021 80 0.0 0.0 0.00 0.00 0.00 85 1012.2
20260906074021 80 300 0.0 2.0 0.00 0.00 0.00 84 1012.2
20260906073021 80 300 0.0 2.0 0.00 0.00 0.00 84 1012.4
20260906072021 80 0.0 0.0 0.00 0.00 0.00 83 1012.4
20260906071021 81 300 0.0 2.0 0.00 0.00 0.00 82 1012.3
20260906070017 81 0.0 1.0 0.00 0.00 0.00 81 1012.5
20260906065021 81 0.0 2.0 0.00 0.00 0.00 80 1012.6
20260906064021 81 299 0.0 2.0 0.00 0.00 0.00 80 1012.7
20260906063022 81 292 0.0 2.0 0.00 0.00 0.00 80 1012.8
20260906062022 81 274 0.0 1.0 0.00 0.00 0.00 80 1012.8
20260906061022 80 274 0.0 1.0 0.00 0.00 0.00 81 1012.7
20260906060016 79 0.0 1.0 0.00 0.00 0.00 82 1012.7
20260906055036 79 0.0 0.0 0.00 0.00 0.00 82 1012.8
20260906054021 78 0.0 0.0 0.00 0.00 0.00 83 1012.7
20260906053022 77 0.0 0.0 0.00 0.00 0.00 83 1012.7
20260906052021 76 0.0 0.0 0.00 0.00 0.00 84 1012.6
20260906051021 76 0.0 0.0 0.00 0.00 0.00 85 1012.5
20260906050021 77 0.0 0.0 0.00 0.00 0.00 83 1012.4
20260906045020 78 0.0 0.0 0.00 0.00 0.00 81 1012.4
20260906044022 78 0.0 0.0 0.00 0.00 0.00 80 1012.3
20260906043017 78 0.0 0.0 0.00 0.00 0.00 81 1012.2
20260906042102 78 0.0 0.0 0.00 0.00 0.00 82 1012.1
20260906041022 78 0.0 0.0 0.00 0.00 0.00 81 1012.1
20260906040022 78 0.0 0.0 0.00 0.00 0.00 82 1011.9
20260906035022 78 0.0 0.0 0.00 0.00 0.00 81 1011.9
20260906034022 79 0.0 0.0 0.00 0.00 0.00 80 1011.9
20260906033037 79 0.0 0.0 0.00 0.00 0.00 79 1011.8
20260906032037 80 0.0 0.0 0.00 0.00 0.00 78 1011.7
20260906031022 80 0.0 0.0 0.00 0.00 0.00 77 1011.8
20260906030022 81 0.0 0.0 0.00 0.00 0.00 75 1011.6
20260906025022 82 0.0 0.0 0.00 0.00 0.00 72 1011.6
20260906024022 82 0.0 0.0 0.00 0.00 0.00 74 1011.6
20260906023042 81 0.0 0.0 0.00 0.00 0.00 75 1011.6
20260906022017 82 0.0 0.0 0.00 0.00 0.00 74 1011.4
20260906021022 83 0.0 0.0 0.00 0.00 0.00 70 1011.3
20260906020022 83 0.0 0.0 0.00 0.00 0.00 70 1011.2
20260906015022 83 0.0 0.0 0.00 0.00 0.00 70 1011.1
20260906014027 83 0.0 0.0 0.00 0.00 0.00 69 1010.9
20260906013102 83 0.0 0.0 0.00 0.00 0.00 71 1010.8
20260906012022 84 0.0 0.0 0.00 0.00 0.00 67 1010.7
20260906011017 84 0.0 0.0 0.00 0.00 0.00 70 1010.7
20260906010022 85 0.0 0.0 0.00 0.00 0.00 68 1010.7
20260906005048 85 0.0 0.0 0.00 0.00 0.00 68 1010.5
20260906004022 86 274 0.0 2.0 0.00 0.00 0.00 65 1010.5
20260906003042 86 274 0.0 2.0 0.00 0.00 0.00 62 1010.3
20260906002022 87 274 0.0 2.0 0.00 0.00 0.00 62 1010.3
20260906001036 88 274 0.0 2.0 0.00 0.00 0.00 61 1010.3
20260906000042 89 274 0.0 2.0 0.00 0.00 0.00 58 1010.3
20260905235021 90 274 0.0 2.0 0.00 0.00 0.00 57 1010.2
20260905234022 90 274 0.0 2.0 0.00 0.00 0.00 57 1010.3
20260905233021 91 274 0.0 2.0 0.00 0.00 0.00 54 1010.3
20260905232022 92 274 2.0 6.0 0.00 0.00 0.00 52 1010.3
20260905231022 94 272 3.0 8.0 0.00 0.00 0.00 49 1010.2
20260905230016 95 277 2.0 6.0 0.00 0.00 0.00 48 1010.2
20260905225021 97 272 4.0 10.0 0.00 0.00 0.00 46 1010.1
20260905224042 99 318 1.0 3.0 0.00 0.00 0.00 42 1010.0
20260905223021 100 322 1.0 6.0 0.00 0.00 0.00 40 1010.1
20260905222022 100 339 1.0 3.0 0.00 0.00 0.00 41 1010.0
20260905221042 101 343 1.0 4.0 0.00 0.00 0.00 40 1010.0
20260905220017 99 346 0.0 3.0 0.00 0.00 0.00 42 1010.1
20260905215038 100 344 1.0 5.0 0.00 0.00 0.00 43 1010.1